STARLINK-1210, 45207

Orbit data source: Space-Track

STARLINK-1210, 45207 is a payload satellite owned by SpaceX/Seattle (US) in LEO that was launched on Mon, 17 Feb 2020 UTC via an FALCON 9 launch vehicle from the Air Force Eastern Test Range (AFETR). Payloads include a variety of satellites, spacecraft, and rockets equipped with specific instruments for various scientific and technological missions. These include communications satellites like Starlink; space stations such as the ISS; scientific satellites like the Hubble; Earth observation satellites from companies like Planet Labs, Umbra, and HawkEye 360; GPS; miniature CubeSats for education and research; and military/defense satellites.

Loading next visibility...
STARLINK-1210 details
Identifier
45207, 2020-012AF
Orbit
LEO
Last TLE update10 hours ago
Origin
Flag of USSpaceX/Seattle (US)
ManufacturerSpaceX/Seattle
MissionPartially operational Commercial Communications
Bus & MotorSTARLINK, Unknown motor
Mass260 kg wet, ~248 kg dry
Launch date (UTC)
2020-02-17 (5 years ago)
Launch vehicle
FALCON 9
Launch site
Air Force Eastern Test Range (AFETR)
Object type
Payload
Rocket body
Debris
Shape & HBRBox + 1 Pan, 8.86 m
Radar Cross Section13.562 m², Large (>1 m²)

Expand to show TLE details & history

TLE from 10 hours ago
0 STARLINK-1210
1 45207U 20012AF  24340.00694411  .00063262  00000-0  33414-2 0  9997
2 45207  53.0555 287.2976 0004621  73.0096 287.1403 15.14926901264939
Epoch: 2024-12-05T00:09Z
Definitive object data (Epoch: 2024-12-05T00:09:59.971Z)
Latitude0.00001°
Longitude-149.49621°
Altitude521.145 km
Speed7.604 km/s
True Right ascension19h 09m 11s
True Declination0° 00' 00"
Sunlit
Object was in daylight at TLE epoch
Visualization TLE readout
Latitude52.86028°
Longitude-52.30108°
Altitude524.545 km
Speed7.609 km/s
Apparent Right ascension22h 34m 25s
Apparent Declination11° 44' 04"
Sunlit
Object is in full shadow
Visualization observer readout
Local Sidereal Time08:03:28
Azimuth317.452° NNW
Elevation-27.606°
Doppler factor1
Orbital elements
Apogee altitude524.66 km
Perigee altitude518.284 km
Semi-major axis6,899.609 km
Eccentricity0.0004621
Inclination53.0555°
RAAN287.2976°
Arg. of periapsis73.0096°
True anomaly287.08969°
Mean anomaly287.1403°
Eccentric anomaly287.115°
Mean motion3.7871 °/min
BSTAR0.0033414
Orbital period95.06 mins
Loading maneuver chart data...

STARLINK-1210 Visibility forecast

Observer location: undefined°, undefined

Span
Click to sort rows by Start time (UTC) header in descending order
Start Az.
Max El. time (UTC)
Max El. Az.
Max El.
End time (UTC)
End Az.
6 mins2024-12-05 22:29:08.814Z186.473° SSW2024-12-05 22:32:08.814Z127.204° SE25.212°2024-12-05 22:35:08.814Z73.126° E
6 mins2024-12-06 00:08:08.814Z263.553° W2024-12-06 00:11:08.814Z340.677° N32.14°2024-12-06 00:14:08.814Z36.174° NE
5 mins2024-12-06 05:09:08.814Z345.024° N2024-12-06 05:11:08.814Z39.87° NE27.783°2024-12-06 05:14:08.814Z93.152° ESE
5 mins2024-12-06 06:48:08.814Z275.883° WNW2024-12-06 06:50:08.814Z213.332° SW30.995°2024-12-06 06:53:08.814Z160.263° S
|